sat.trackr.live / text

‹ back to catalog

LYNK TOWER 4

NORAD 55034 · 2023-001AB

PAYLOAD ACTIVE UNKNOWN

§ Identity

Operator
Country
US
Launch date
2023-01-03
Launch site
AFETR
Launch vehicle
Mass (kg)
RCS (m²)

External: N2YO · Heavens-Above · Gunter

§ Orbital elements

Epoch: 2026-05-25T03:21:16.553088Z

Period
93.93 min
Inclination
97.3214°
Eccentricity
0.0008064
Mean motion
15.32982376 rev/d
Perigee alt
461.4 km
Apogee alt
472.4 km
Semi-major
6,845.1 km
B*
2.2558e-4
RAAN
204.2852°
Arg perigee
189.0795°
Mean anomaly
171.0303°
Rev number
18,829

§ Raw data

LYNK TOWER 41 55034U 23001AB  26145.13977492  .00007115  00000+0  22558-3 0  99912 55034  97.3214 204.2852 0008064 189.0795 171.0303 15.32982376188294

JSON: /api/v1/satellites/55034 · /tle

For live sub-satellite position, see the globe view (requires WebGL).

§ Visibility from observer

Set your observer location to see the next 7 days of passes ≥ 10°. The values pass through the URL so the page stays shareable.

No JS? Fill the form by hand. The geolocation button needs JavaScript.

§ Radio — SatNOGS DB

ModeDescriptionDownlinkUplink
FM S-band telemetry 2.260 GHz

1 transmitter · refreshed weekly from db.satnogs.org